ABL602 WADD-RKPK

Flight info

Callsign ABL602
Flight time N/A
Altitude 31000
Route BLI A450 MKS W53 HOLBA/N0469F330 W53 AMN DCT SADEP A339 WRNNR/N0463F350 A339 SABGU/N0457F360 G339 HKC/N0452F370 G339 DGC/N0457F380 G339 PSN PEDLO2
Aircraft A321/M-SDE3FGHIRWY/LB1

Departure

Time 2026-05-07 14:26
Airport Denpasar I Gusti Ngurah Rai International Airport (WADD)

Arrival

Time N/A
Airport Gimhae International Airport (RKPK)
Time Latitude Longitude Altitude Speed Heading
2026-05-07 14:01 -8.74564 115.16472 33 ft 0 kts 358°
2026-05-07 14:17 -8.74565 115.16472 33 ft 1 kts 358°
2026-05-07 14:18 -8.74588 115.16473 32 ft 4 kts 358°
2026-05-07 14:18 -8.74615 115.16474 32 ft 4 kts 358°
2026-05-07 14:18 -8.74642 115.16476 31 ft 4 kts 358°
2026-05-07 14:18 -8.74666 115.16476 30 ft 4 kts 349°
2026-05-07 14:19 -8.74686 115.16487 31 ft 4 kts 288°
2026-05-07 14:19 -8.74688 115.16510 32 ft 1 kts 268°
2026-05-07 14:19 -8.74688 115.16515 32 ft 0 kts 268°
2026-05-07 14:21 -8.74689 115.16485 31 ft 8 kts 268°
2026-05-07 14:22 -8.74691 115.16424 33 ft 9 kts 268°
2026-05-07 14:22 -8.74695 115.16354 33 ft 11 kts 266°
2026-05-07 14:22 -8.74698 115.16275 33 ft 12 kts 269°
2026-05-07 14:22 -8.74701 115.16186 33 ft 13 kts 268°
2026-05-07 14:23 -8.74705 115.16089 33 ft 14 kts 267°
2026-05-07 14:23 -8.74709 115.15983 33 ft 16 kts 267°
2026-05-07 14:23 -8.74714 115.15867 33 ft 17 kts 267°
2026-05-07 14:23 -8.74719 115.15742 33 ft 18 kts 270°
2026-05-07 14:24 -8.74724 115.15610 32 ft 19 kts 267°
2026-05-07 14:24 -8.74730 115.15471 32 ft 20 kts 268°
2026-05-07 14:24 -8.74789 115.15391 31 ft 10 kts 184°
2026-05-07 14:24 -8.74870 115.15405 29 ft 13 kts 143°
2026-05-07 14:25 -8.74896 115.15482 29 ft 7 kts 88°
2026-05-07 14:25 -8.74893 115.15548 29 ft 23 kts 86°
2026-05-07 14:25 -8.74876 115.15986 29 ft 99 kts 86°
2026-05-07 14:25 -8.74837 115.16901 31 ft 158 kts 89°
2026-05-07 14:26 -8.74817 115.18096 409 ft 175 kts 90°
2026-05-07 14:26 -8.74777 115.19324 1200 ft 174 kts 89°
2026-05-07 14:26 -8.74720 115.20587 1760 ft 189 kts 89°
2026-05-07 14:26 -8.74659 115.21997 2150 ft 212 kts 89°
2026-05-07 14:27 -8.74593 115.23581 2599 ft 237 kts 89°
2026-05-07 14:27 -8.74519 115.25290 3179 ft 249 kts 88°
2026-05-07 14:27 -8.74442 115.27043 3891 ft 254 kts 89°
2026-05-07 14:27 -8.74365 115.28847 4610 ft 259 kts 89°
2026-05-07 14:28 -8.74289 115.30681 5290 ft 264 kts 89°
2026-05-07 14:28 -8.74211 115.32546 5962 ft 268 kts 89°
2026-05-07 14:28 -8.74130 115.34449 6612 ft 272 kts 89°
2026-05-07 14:28 -8.74048 115.36376 7218 ft 277 kts 89°
2026-05-07 14:29 -8.73964 115.38337 7857 ft 281 kts 89°
2026-05-07 14:29 -8.73881 115.40319 8534 ft 283 kts 88°
2026-05-07 14:29 -8.73797 115.42321 8908 ft 287 kts 88°
2026-05-07 14:29 -8.73712 115.44341 8994 ft 288 kts 88°
2026-05-07 14:30 -8.73629 115.46361 9006 ft 287 kts 88°
2026-05-07 14:30 -8.73539 115.48374 9008 ft 286 kts 85°
2026-05-07 14:30 -8.73083 115.50331 9120 ft 291 kts 65°
2026-05-07 14:30 -8.71936 115.52011 9783 ft 293 kts 45°
2026-05-07 14:31 -8.70452 115.53456 10213 ft 304 kts 44°
2026-05-07 14:31 -8.68858 115.54962 10333 ft 324 kts 43°
2026-05-07 14:31 -8.67158 115.56546 10607 ft 337 kts 43°
2026-05-07 14:31 -8.65415 115.58161 11063 ft 342 kts 43°
2026-05-07 14:32 -8.63673 115.59776 11556 ft 346 kts 43°
2026-05-07 14:32 -8.61889 115.61433 12057 ft 350 kts 43°
2026-05-07 14:32 -8.60064 115.63130 12552 ft 354 kts 43°
2026-05-07 14:32 -8.58268 115.64805 13036 ft 358 kts 43°
2026-05-07 14:33 -8.56426 115.66523 13494 ft 363 kts 43°
2026-05-07 14:33 -8.54558 115.68260 13945 ft 366 kts 43°
2026-05-07 14:33 -8.52679 115.70006 14393 ft 368 kts 43°
2026-05-07 14:33 -8.50788 115.71763 14858 ft 370 kts 42°
2026-05-07 14:34 -8.48884 115.73533 15277 ft 374 kts 42°
2026-05-07 14:34 -8.46966 115.75319 15719 ft 376 kts 42°
2026-05-07 14:34 -8.45031 115.77121 16114 ft 380 kts 42°
2026-05-07 14:34 -8.43084 115.78931 16538 ft 382 kts 42°
2026-05-07 14:35 -8.41120 115.80756 16932 ft 386 kts 42°
2026-05-07 14:35 -8.39138 115.82601 17352 ft 389 kts 42°
2026-05-07 14:35 -8.37142 115.84456 17729 ft 392 kts 42°
2026-05-07 14:35 -8.35126 115.86330 18141 ft 394 kts 42°
2026-05-07 14:36 -8.33099 115.88214 18474 ft 398 kts 42°
2026-05-07 14:36 -8.31064 115.90106 18831 ft 400 kts 41°
2026-05-07 14:36 -8.29705 115.91369 19048 ft 402 kts 41°
2026-05-07 14:36 -8.26944 115.93933 19543 ft 404 kts 41°
2026-05-07 14:37 -8.25568 115.95210 19779 ft 406 kts 41°
2026-05-07 14:37 -8.21411 115.99069 20618 ft 407 kts 42°
2026-05-07 14:37 -8.19325 116.01009 20970 ft 409 kts 42°
2026-05-07 14:38 -8.17228 116.02958 21324 ft 410 kts 42°
2026-05-07 14:38 -8.15125 116.04910 21691 ft 412 kts 42°
2026-05-07 14:38 -8.13011 116.06870 22043 ft 413 kts 42°
2026-05-07 14:38 -8.10896 116.08834 22385 ft 415 kts 42°
2026-05-07 14:39 -8.08761 116.10817 22723 ft 417 kts 42°
2026-05-07 14:39 -8.06623 116.12803 23056 ft 419 kts 42°
2026-05-07 14:39 -8.04473 116.14795 23378 ft 421 kts 42°
2026-05-07 14:39 -8.02306 116.16800 23659 ft 423 kts 42°
2026-05-07 14:40 -8.00134 116.18812 23930 ft 425 kts 42°
2026-05-07 14:40 -7.97955 116.20833 24196 ft 427 kts 42°
2026-05-07 14:40 -7.95763 116.22865 24470 ft 428 kts 42°
2026-05-07 14:40 -7.93568 116.24899 24732 ft 430 kts 42°
2026-05-07 14:41 -7.91358 116.26948 24997 ft 432 kts 42°
2026-05-07 14:41 -7.89139 116.29007 25246 ft 434 kts 42°
2026-05-07 14:41 -7.86910 116.31073 25499 ft 436 kts 42°
2026-05-07 14:41 -7.84673 116.33142 25758 ft 438 kts 41°
2026-05-07 14:42 -7.82421 116.35226 26029 ft 440 kts 41°
2026-05-07 14:42 -7.80166 116.37319 26270 ft 442 kts 42°
2026-05-07 14:42 -7.77903 116.39415 26531 ft 443 kts 41°
2026-05-07 14:42 -7.75626 116.41518 26766 ft 445 kts 42°
2026-05-07 14:43 -7.73340 116.43633 27018 ft 447 kts 42°
2026-05-07 14:43 -7.71047 116.45753 27253 ft 448 kts 42°
2026-05-07 14:43 -7.68743 116.47884 27487 ft 450 kts 42°
2026-05-07 14:43 -7.66435 116.50019 27743 ft 452 kts 42°
2026-05-07 14:44 -7.64118 116.52168 27969 ft 454 kts 42°
2026-05-07 14:44 -7.61790 116.54323 28207 ft 455 kts 42°
2026-05-07 14:44 -7.59447 116.56485 28437 ft 457 kts 41°
2026-05-07 14:44 -7.57095 116.58651 28651 ft 459 kts 42°
2026-05-07 14:45 -7.54736 116.60829 28905 ft 461 kts 42°
2026-05-07 14:45 -7.52372 116.63018 29096 ft 463 kts 42°
2026-05-07 14:45 -7.50126 116.65349 29320 ft 465 kts 50°
2026-05-07 14:45 -7.48044 116.67851 29533 ft 466 kts 50°
2026-05-07 14:46 -7.45951 116.70362 29744 ft 469 kts 50°
2026-05-07 14:46 -7.43848 116.72870 29995 ft 469 kts 50°
2026-05-07 14:46 -7.41736 116.75384 30182 ft 471 kts 50°
2026-05-07 14:46 -7.39616 116.77905 30377 ft 472 kts 50°
2026-05-07 14:47 -7.37491 116.80432 30567 ft 473 kts 50°
2026-05-07 14:47 -7.35361 116.82968 30724 ft 475 kts 50°
2026-05-07 14:47 -7.33224 116.85509 30870 ft 476 kts 50°
2026-05-07 14:47 -7.31107 116.88034 30911 ft 463 kts 50°
2026-05-07 14:48 -7.29070 116.90470 30905 ft 449 kts 50°
2026-05-07 14:48 -7.27068 116.92862 30909 ft 444 kts 50°
2026-05-07 14:48 -7.23084 116.97606 30909 ft 443 kts 50°
2026-05-07 14:49 -7.19109 117.02344 30908 ft 443 kts 50°
2026-05-07 14:49 -7.15142 117.07081 30906 ft 443 kts 50°
2026-05-07 14:50 -7.11165 117.11811 30899 ft 442 kts 50°
2026-05-07 14:50 -7.07186 117.16536 30904 ft 442 kts 50°
2026-05-07 14:51 -7.03218 117.21252 30905 ft 441 kts 50°
2026-05-07 14:51 -6.99243 117.25962 30907 ft 441 kts 50°
2026-05-07 14:52 -6.95305 117.30646 30902 ft 441 kts 50°
2026-05-07 14:52 -6.91343 117.35361 30902 ft 441 kts 50°
2026-05-07 14:53 -6.87380 117.40075 30907 ft 441 kts 50°
2026-05-07 14:53 -6.83386 117.44821 30906 ft 441 kts 50°
2026-05-07 14:54 -6.79448 117.49503 30904 ft 441 kts 50°
2026-05-07 14:54 -6.75482 117.54211 30910 ft 441 kts 50°
2026-05-07 14:55 -6.71521 117.58921 30915 ft 441 kts 50°
2026-05-07 14:55 -6.67554 117.63618 30925 ft 440 kts 50°
2026-05-07 14:56 -6.63560 117.68275 30915 ft 439 kts 49°
2026-05-07 14:56 -6.59545 117.72903 30913 ft 439 kts 49°
2026-05-07 14:57 -6.55540 117.77535 30917 ft 439 kts 49°
2026-05-07 14:57 -6.51541 117.82171 30915 ft 439 kts 49°
2026-05-07 14:58 -6.47540 117.86805 30912 ft 439 kts 49°
2026-05-07 14:58 -6.43542 117.91439 30911 ft 438 kts 49°
2026-05-07 14:59 -6.39545 117.96063 30908 ft 438 kts 49°
2026-05-07 14:59 -6.35545 118.00684 30906 ft 438 kts 49°
2026-05-07 15:00 -6.31552 118.05310 30904 ft 438 kts 49°
2026-05-07 15:00 -6.27562 118.09935 30900 ft 438 kts 49°
2026-05-07 15:01 -6.23572 118.14558 30903 ft 438 kts 49°
2026-05-07 15:01 -6.19572 118.19181 30906 ft 438 kts 49°
2026-05-07 15:02 -6.15579 118.23796 30903 ft 438 kts 49°
2026-05-07 15:02 -6.11582 118.28411 30903 ft 438 kts 49°
2026-05-07 15:03 -6.07588 118.33022 30903 ft 438 kts 49°
2026-05-07 15:03 -6.03594 118.37637 30903 ft 437 kts 49°
2026-05-07 15:04 -5.99606 118.42248 30913 ft 436 kts 49°
2026-05-07 15:04 -5.95655 118.46815 30913 ft 435 kts 49°
2026-05-07 15:05 -5.91687 118.51398 30910 ft 434 kts 49°
2026-05-07 15:05 -5.87727 118.55977 30906 ft 434 kts 49°
2026-05-07 15:06 -5.83765 118.60543 30899 ft 433 kts 49°
2026-05-07 15:06 -5.79802 118.65104 30895 ft 433 kts 49°
2026-05-07 15:07 -5.75848 118.69668 30891 ft 433 kts 49°
2026-05-07 15:07 -5.71890 118.74228 30885 ft 433 kts 49°
2026-05-07 15:08 -5.67888 118.78843 31090 ft 442 kts 49°
2026-05-07 15:08 -5.65861 118.81184 31207 ft 446 kts 49°
2026-05-07 15:08 -5.63809 118.83549 31325 ft 450 kts 49°
2026-05-07 15:09 -5.61741 118.85930 31431 ft 454 kts 49°
2026-05-07 15:09 -5.59659 118.88327 31557 ft 458 kts 49°
2026-05-07 15:09 -5.57557 118.90748 31672 ft 461 kts 50°
2026-05-07 15:09 -5.55443 118.93186 31795 ft 465 kts 49°
2026-05-07 15:10 -5.53314 118.95642 31920 ft 468 kts 49°
2026-05-07 15:10 -5.51173 118.98105 32083 ft 469 kts 49°
2026-05-07 15:10 -5.49029 119.00571 32313 ft 469 kts 49°
2026-05-07 15:10 -5.46887 119.03037 32557 ft 468 kts 49°
2026-05-07 15:11 -5.44755 119.05494 32811 ft 467 kts 49°
2026-05-07 15:11 -5.42620 119.07951 33079 ft 466 kts 49°
2026-05-07 15:11 -5.40491 119.10398 33339 ft 465 kts 49°
2026-05-07 15:11 -5.38372 119.12839 33604 ft 464 kts 49°
2026-05-07 15:12 -5.36256 119.15279 33867 ft 463 kts 49°
2026-05-07 15:12 -5.34141 119.17713 34097 ft 462 kts 49°
2026-05-07 15:12 -5.32029 119.20139 34310 ft 461 kts 49°
2026-05-07 15:12 -5.29917 119.22563 34511 ft 461 kts 49°
2026-05-07 15:13 -5.27835 119.24954 34727 ft 461 kts 49°
2026-05-07 15:13 -5.25725 119.27384 34914 ft 462 kts 49°
2026-05-07 15:13 -5.23617 119.29818 35115 ft 462 kts 49°
2026-05-07 15:13 -5.21512 119.32245 35331 ft 461 kts 49°
2026-05-07 15:14 -5.19376 119.34705 35541 ft 461 kts 49°
2026-05-07 15:14 -5.17270 119.37126 35755 ft 460 kts 49°
2026-05-07 15:14 -5.15164 119.39544 35966 ft 460 kts 49°
2026-05-07 15:14 -5.13057 119.41959 36163 ft 459 kts 49°
2026-05-07 15:15 -5.10954 119.44368 36378 ft 459 kts 49°
2026-05-07 15:15 -5.08884 119.46745 36561 ft 458 kts 49°
2026-05-07 15:15 -5.06780 119.49198 36755 ft 458 kts 52°
2026-05-07 15:15 -5.05022 119.51857 36882 ft 458 kts 62°
2026-05-07 15:16 -5.02963 119.57812 36892 ft 456 kts 81°
2026-05-07 15:16 -5.01996 119.64107 36892 ft 457 kts 81°
2026-05-07 15:17 -5.01007 119.70395 36896 ft 457 kts 81°
2026-05-07 15:17 -5.00010 119.76688 36909 ft 457 kts 81°
2026-05-07 15:18 -4.99008 119.83018 36922 ft 457 kts 81°
2026-05-07 15:18 -4.98022 119.89325 36931 ft 458 kts 81°
2026-05-07 15:19 -4.97032 119.95634 36947 ft 458 kts 81°
2026-05-07 15:19 -4.96032 120.01947 36951 ft 459 kts 81°
2026-05-07 15:20 -4.95198 120.07199 36948 ft 459 kts 81°
2026-05-07 15:20 -4.94033 120.14585 36950 ft 459 kts 81°
2026-05-07 15:21 -4.93208 120.19844 36939 ft 459 kts 81°
2026-05-07 15:21 -4.92221 120.26167 36940 ft 459 kts 81°
2026-05-07 15:22 -4.91221 120.32494 36932 ft 459 kts 81°
2026-05-07 15:22 -4.90222 120.38822 36932 ft 460 kts 81°
2026-05-07 15:23 -4.89218 120.45149 36929 ft 459 kts 81°
2026-05-07 15:23 -4.88217 120.51477 36927 ft 459 kts 81°
2026-05-07 15:24 -4.87217 120.57801 36929 ft 459 kts 81°
2026-05-07 15:24 -4.86218 120.64126 36926 ft 459 kts 81°
2026-05-07 15:25 -4.85214 120.70452 36925 ft 459 kts 81°
2026-05-07 15:25 -4.84208 120.76777 36924 ft 459 kts 81°
2026-05-07 15:26 -4.83203 120.83102 36929 ft 459 kts 81°
2026-05-07 15:26 -4.82198 120.89421 36929 ft 459 kts 81°
2026-05-07 15:27 -4.81195 120.95751 36932 ft 460 kts 81°
2026-05-07 15:27 -4.80186 121.02078 36931 ft 459 kts 81°
2026-05-07 15:28 -4.79177 121.08400 36932 ft 459 kts 81°
2026-05-07 15:28 -4.78170 121.14717 36930 ft 459 kts 81°
2026-05-07 15:29 -4.77169 121.21034 36929 ft 458 kts 81°
2026-05-07 15:29 -4.76169 121.27346 36929 ft 458 kts 81°
2026-05-07 15:30 -4.75169 121.33655 36928 ft 458 kts 81°
2026-05-07 15:30 -4.74160 121.39965 36927 ft 458 kts 81°
2026-05-07 15:31 -4.73146 121.46273 36926 ft 459 kts 81°
2026-05-07 15:31 -4.72139 121.52586 36930 ft 459 kts 81°
2026-05-07 15:32 -4.71133 121.58904 36928 ft 459 kts 81°
2026-05-07 15:32 -4.70121 121.65221 36930 ft 459 kts 81°
2026-05-07 15:33 -4.69114 121.71500 36931 ft 459 kts 81°
2026-05-07 15:33 -4.68102 121.77819 36932 ft 460 kts 81°
2026-05-07 15:34 -4.67092 121.84144 36937 ft 459 kts 81°
2026-05-07 15:34 -4.66075 121.90457 36940 ft 458 kts 81°
2026-05-07 15:35 -4.65064 121.96764 36941 ft 458 kts 81°
2026-05-07 15:35 -4.64055 122.03066 36940 ft 458 kts 81°
2026-05-07 15:36 -4.63065 122.09368 36939 ft 458 kts 81°
2026-05-07 15:36 -4.62080 122.15670 36940 ft 457 kts 81°
2026-05-07 15:37 -4.61091 122.21959 36935 ft 457 kts 81°
2026-05-07 15:37 -4.60091 122.28245 36934 ft 456 kts 81°
2026-05-07 15:38 -4.59100 122.34526 36935 ft 456 kts 81°
2026-05-07 15:38 -4.58109 122.40802 36932 ft 456 kts 81°
2026-05-07 15:39 -4.57116 122.47071 36930 ft 455 kts 81°
2026-05-07 15:39 -4.56123 122.53340 36930 ft 455 kts 81°
2026-05-07 15:40 -4.55131 122.59603 36934 ft 455 kts 81°
2026-05-07 15:40 -4.54141 122.65865 36934 ft 455 kts 81°
2026-05-07 15:41 -4.53144 122.72124 36934 ft 454 kts 81°
2026-05-07 15:41 -4.52152 122.78358 36934 ft 454 kts 81°
2026-05-07 15:42 -4.51161 122.84616 36936 ft 454 kts 81°
2026-05-07 15:42 -4.50167 122.90856 36931 ft 454 kts 81°
2026-05-07 15:43 -4.49169 122.97103 36926 ft 454 kts 81°
2026-05-07 15:43 -4.48178 123.03352 36926 ft 455 kts 81°
2026-05-07 15:44 -4.47182 123.09614 36922 ft 455 kts 81°
2026-05-07 15:44 -4.46186 123.15867 36929 ft 454 kts 81°
2026-05-07 15:45 -4.45190 123.22119 36925 ft 454 kts 81°
2026-05-07 15:45 -4.44194 123.28371 36919 ft 455 kts 81°
2026-05-07 15:46 -4.42701 123.37757 36917 ft 455 kts 81°
2026-05-07 15:47 -4.41700 123.44015 36919 ft 455 kts 81°
2026-05-07 15:47 -4.40711 123.50281 36916 ft 455 kts 82°
2026-05-07 15:48 -4.39729 123.56547 36917 ft 455 kts 82°
2026-05-07 15:48 -4.38747 123.62819 36918 ft 455 kts 82°
2026-05-07 15:49 -4.37774 123.69045 36916 ft 455 kts 81°
2026-05-07 15:49 -4.36789 123.75314 36914 ft 456 kts 81°
2026-05-07 15:50 -4.35801 123.81583 36911 ft 456 kts 81°
2026-05-07 15:50 -4.34817 123.87858 36911 ft 456 kts 81°
2026-05-07 15:51 -4.33832 123.94133 36912 ft 456 kts 81°
2026-05-07 15:51 -4.32845 124.00413 36911 ft 456 kts 82°
2026-05-07 15:52 -4.31854 124.06690 36905 ft 456 kts 82°
2026-05-07 15:52 -4.30859 124.12962 36906 ft 456 kts 82°
2026-05-07 15:53 -4.29864 124.19244 36911 ft 456 kts 82°
2026-05-07 15:53 -4.28875 124.25518 36908 ft 456 kts 82°
2026-05-07 15:54 -4.27881 124.31792 36906 ft 456 kts 82°
2026-05-07 15:54 -4.26892 124.38062 36907 ft 456 kts 81°
2026-05-07 15:55 -4.25897 124.44332 36904 ft 456 kts 81°
2026-05-07 15:55 -4.24904 124.50603 36904 ft 456 kts 82°
2026-05-07 15:56 -4.23913 124.56874 36900 ft 456 kts 81°
2026-05-07 15:56 -4.22920 124.63139 36901 ft 456 kts 81°
2026-05-07 15:57 -4.21924 124.69406 36904 ft 455 kts 82°
2026-05-07 15:57 -4.20933 124.75674 36904 ft 455 kts 82°
2026-05-07 15:58 -4.19943 124.81932 36903 ft 455 kts 82°
2026-05-07 15:58 -4.18950 124.88186 36904 ft 454 kts 81°
2026-05-07 15:59 -4.17956 124.94436 36905 ft 454 kts 82°
2026-05-07 15:59 -4.16968 125.00682 36905 ft 454 kts 82°
2026-05-07 16:00 -4.15976 125.06931 36904 ft 454 kts 82°
2026-05-07 16:00 -4.14965 125.13229 36817 ft 464 kts 82°
2026-05-07 16:01 -4.13944 125.19643 36873 ft 470 kts 82°
2026-05-07 16:01 -4.12918 125.26148 36882 ft 476 kts 82°
2026-05-07 16:02 -4.11871 125.32732 36869 ft 482 kts 81°
2026-05-07 16:02 -4.10803 125.39394 36883 ft 487 kts 82°
2026-05-07 16:03 -4.09728 125.46139 36888 ft 493 kts 81°
2026-05-07 16:03 -4.09163 125.49523 37036 ft 492 kts 81°
2026-05-07 16:03 -4.08557 125.52901 37137 ft 493 kts 80°
2026-05-07 16:04 -4.07466 125.58500 37328 ft 493 kts 79°
2026-05-07 16:04 -4.06761 125.61855 37447 ft 493 kts 79°
2026-05-07 16:04 -4.06019 125.65209 37571 ft 492 kts 78°
2026-05-07 16:05 -4.04419 125.71881 37811 ft 492 kts 76°
2026-05-07 16:05 -4.02675 125.78507 38063 ft 491 kts 75°
2026-05-07 16:06 -4.00788 125.85093 38232 ft 492 kts 73°
2026-05-07 16:06 -3.98761 125.91635 38481 ft 491 kts 72°
2026-05-07 16:07 -3.96594 125.98122 38660 ft 490 kts 71°
2026-05-07 16:07 -3.94293 126.04519 38537 ft 482 kts 72°
2026-05-07 16:07 -3.93140 126.07658 38368 ft 473 kts 71°
2026-05-07 16:08 -3.91902 126.10657 38762 ft 464 kts 59°
2026-05-07 16:08 -3.89925 126.13179 38860 ft 460 kts 43°
2026-05-07 16:08 -3.87417 126.15146 38882 ft 458 kts 31°
2026-05-07 16:09 -3.81957 126.18443 38883 ft 458 kts 30°
2026-05-07 16:09 -3.76453 126.21672 38885 ft 458 kts 30°
2026-05-07 16:10 -3.70948 126.24893 38891 ft 458 kts 30°
2026-05-07 16:10 -3.65469 126.28116 38915 ft 456 kts 30°
2026-05-07 16:11 -3.60011 126.31338 38919 ft 455 kts 30°
2026-05-07 16:11 -3.54515 126.34578 38932 ft 455 kts 30°
2026-05-07 16:12 -3.49050 126.37795 38949 ft 456 kts 30°
2026-05-07 16:12 -3.43587 126.41013 38941 ft 456 kts 30°
2026-05-07 16:13 -3.38121 126.44224 38946 ft 456 kts 30°
2026-05-07 16:13 -3.32654 126.47436 38953 ft 455 kts 30°
2026-05-07 16:14 -3.27197 126.50647 38936 ft 455 kts 30°
2026-05-07 16:14 -3.21740 126.53860 38935 ft 455 kts 30°
2026-05-07 16:15 -3.16284 126.57070 38916 ft 455 kts 30°
2026-05-07 16:15 -3.10832 126.60279 38915 ft 455 kts 30°
2026-05-07 16:16 -3.05383 126.63495 38899 ft 455 kts 30°
2026-05-07 16:16 -2.99924 126.66697 38894 ft 455 kts 30°
2026-05-07 16:17 -2.94501 126.69879 38894 ft 455 kts 30°
2026-05-07 16:17 -2.89045 126.73090 38895 ft 455 kts 30°
2026-05-07 16:18 -2.83581 126.76303 38893 ft 456 kts 30°
2026-05-07 16:18 -2.78116 126.79517 38884 ft 456 kts 30°
2026-05-07 16:19 -2.72649 126.82738 38885 ft 456 kts 30°
2026-05-07 16:19 -2.67181 126.85954 38885 ft 456 kts 30°
2026-05-07 16:20 -2.61712 126.89161 38885 ft 456 kts 30°
2026-05-07 16:20 -2.56240 126.92369 38886 ft 456 kts 30°
2026-05-07 16:21 -2.50773 126.95587 38885 ft 456 kts 30°
2026-05-07 16:21 -2.45309 126.98799 38885 ft 456 kts 30°
2026-05-07 16:22 -2.39841 127.02015 38887 ft 456 kts 31°
2026-05-07 16:22 -2.34368 127.05224 38884 ft 456 kts 30°
2026-05-07 16:23 -2.28895 127.08441 38883 ft 457 kts 31°
2026-05-07 16:23 -2.23421 127.11660 38884 ft 457 kts 30°
2026-05-07 16:24 -2.17932 127.14875 38884 ft 457 kts 30°
2026-05-07 16:24 -2.12449 127.18093 38883 ft 457 kts 31°
2026-05-07 16:25 -2.06962 127.21315 38885 ft 457 kts 31°
2026-05-07 16:25 -2.01512 127.24517 38888 ft 458 kts 31°
2026-05-07 16:26 -1.96025 127.27743 38890 ft 457 kts 31°
2026-05-07 16:26 -1.90540 127.30964 38892 ft 457 kts 31°
2026-05-07 16:27 -1.85020 127.34210 38890 ft 457 kts 31°
2026-05-07 16:27 -1.79579 127.37402 38894 ft 457 kts 31°
2026-05-07 16:28 -1.74096 127.40612 38894 ft 456 kts 31°
2026-05-07 16:28 -1.68621 127.43828 38897 ft 456 kts 31°
2026-05-07 16:29 -1.63150 127.47041 38896 ft 456 kts 31°
2026-05-07 16:29 -1.57678 127.50247 38899 ft 455 kts 31°
2026-05-07 16:30 -1.52216 127.53446 38901 ft 455 kts 31°
2026-05-07 16:30 -1.46764 127.56648 38900 ft 454 kts 31°
2026-05-07 16:31 -1.41311 127.59844 38899 ft 454 kts 31°
2026-05-07 16:31 -1.35865 127.63041 38898 ft 454 kts 31°
2026-05-07 16:32 -1.30423 127.66242 38892 ft 454 kts 31°
2026-05-07 16:32 -1.24976 127.69438 38892 ft 454 kts 31°
2026-05-07 16:33 -1.19527 127.72629 38886 ft 454 kts 31°
2026-05-07 16:33 -1.14078 127.75818 38886 ft 454 kts 31°
2026-05-07 16:34 -1.08622 127.79018 38887 ft 454 kts 31°
2026-05-07 16:34 -1.03171 127.82222 38887 ft 454 kts 31°
2026-05-07 16:35 -0.97721 127.85419 38886 ft 454 kts 31°
2026-05-07 16:35 -0.92272 127.88618 38888 ft 454 kts 31°
2026-05-07 16:36 -0.86827 127.91813 38887 ft 454 kts 31°
2026-05-07 16:36 -0.81419 127.94991 38890 ft 454 kts 31°
2026-05-07 16:37 -0.75977 127.98176 38893 ft 453 kts 31°
2026-05-07 16:37 -0.70538 128.01361 38890 ft 453 kts 31°
2026-05-07 16:38 -0.65104 128.04538 38889 ft 452 kts 31°
2026-05-07 16:38 -0.59679 128.07711 38890 ft 452 kts 31°
2026-05-07 16:39 -0.54263 128.10890 38883 ft 451 kts 31°
2026-05-07 16:39 -0.48857 128.14073 38883 ft 451 kts 31°
2026-05-07 16:40 -0.43447 128.17252 38882 ft 451 kts 31°
2026-05-07 16:40 -0.38034 128.20424 38885 ft 451 kts 31°
2026-05-07 16:41 -0.32619 128.23586 38882 ft 451 kts 31°
2026-05-07 16:41 -0.27205 128.26752 38880 ft 451 kts 31°
2026-05-07 16:42 -0.21795 128.29927 38879 ft 451 kts 31°
2026-05-07 16:42 -0.16381 128.33104 38880 ft 451 kts 31°
2026-05-07 16:43 -0.10966 128.36281 38879 ft 451 kts 31°
2026-05-07 16:43 -0.05552 128.39465 38881 ft 452 kts 31°
2026-05-07 16:44 -0.00131 128.42637 38881 ft 452 kts 31°
2026-05-07 16:44 0.05259 128.45791 38887 ft 452 kts 31°
2026-05-07 16:45 0.10678 128.48970 38883 ft 452 kts 31°
2026-05-07 16:45 0.16097 128.52144 38881 ft 452 kts 31°
2026-05-07 16:46 0.21521 128.55324 38881 ft 452 kts 31°
2026-05-07 16:46 0.26945 128.58508 38883 ft 452 kts 31°
2026-05-07 16:47 0.32370 128.61691 38883 ft 452 kts 31°
2026-05-07 16:47 0.37795 128.64869 38886 ft 452 kts 31°
2026-05-07 16:48 0.43222 128.68046 38886 ft 452 kts 31°
2026-05-07 16:48 0.48642 128.71224 38888 ft 452 kts 31°
2026-05-07 16:49 0.54064 128.74405 38887 ft 452 kts 31°
2026-05-07 16:49 0.58567 128.77048 38883 ft 452 kts 31°
2026-05-07 16:50 0.63988 128.80226 38885 ft 452 kts 31°
2026-05-07 16:50 0.69410 128.83404 38884 ft 452 kts 31°
2026-05-07 16:51 0.74838 128.86583 38883 ft 452 kts 31°
2026-05-07 16:51 0.80265 128.89757 38883 ft 452 kts 31°
2026-05-07 16:52 0.85688 128.92937 38882 ft 452 kts 31°
2026-05-07 16:52 0.91108 128.96121 38879 ft 452 kts 31°
2026-05-07 16:53 0.96527 128.99308 38884 ft 452 kts 31°
2026-05-07 16:53 1.01953 129.02487 38882 ft 452 kts 31°
2026-05-07 16:54 1.07384 129.05666 38880 ft 452 kts 31°
2026-05-07 16:54 1.12808 129.08849 38880 ft 452 kts 31°
2026-05-07 16:55 1.18234 129.12036 38883 ft 452 kts 31°
2026-05-07 16:55 1.23659 129.15217 38879 ft 452 kts 31°
2026-05-07 16:56 1.29080 129.18401 38880 ft 452 kts 31°
2026-05-07 16:56 1.37212 129.23168 38880 ft 452 kts 31°
2026-05-07 16:57 1.42631 129.26352 38880 ft 452 kts 31°
2026-05-07 16:57 1.48050 129.29528 38881 ft 452 kts 31°
2026-05-07 16:58 1.53466 129.32712 38883 ft 451 kts 31°
2026-05-07 16:58 1.58879 129.35891 38883 ft 451 kts 31°
2026-05-07 16:59 1.64296 129.39064 38881 ft 451 kts 31°
2026-05-07 16:59 1.69675 129.42214 38881 ft 451 kts 31°
2026-05-07 17:00 1.75085 129.45392 38880 ft 451 kts 31°
2026-05-07 17:00 1.80491 129.48574 38879 ft 451 kts 31°
2026-05-07 17:01 1.85903 129.51750 38881 ft 451 kts 31°
2026-05-07 17:01 1.91320 129.54919 38882 ft 451 kts 31°
2026-05-07 17:02 1.96732 129.58099 38878 ft 451 kts 31°
2026-05-07 17:02 2.02141 129.61274 38880 ft 451 kts 31°
2026-05-07 17:03 2.07547 129.64450 38879 ft 451 kts 31°
2026-05-07 17:03 2.12953 129.67625 38881 ft 451 kts 31°
2026-05-07 17:04 2.18362 129.70796 38879 ft 451 kts 31°
2026-05-07 17:04 2.23766 129.73970 38880 ft 451 kts 31°
2026-05-07 17:05 2.29171 129.77147 38880 ft 451 kts 31°
2026-05-07 17:05 2.34576 129.80323 38878 ft 450 kts 31°
2026-05-07 17:06 2.39980 129.83499 38875 ft 451 kts 31°
2026-05-07 17:06 2.45394 129.86676 38875 ft 451 kts 31°
2026-05-07 17:07 2.50807 129.89859 38875 ft 451 kts 31°
2026-05-07 17:07 2.56217 129.93044 38875 ft 451 kts 31°
2026-05-07 17:08 2.61633 129.96231 38873 ft 452 kts 31°
2026-05-07 17:08 2.67050 129.99413 38875 ft 452 kts 30°
2026-05-07 17:09 2.72480 130.02591 38869 ft 452 kts 30°
2026-05-07 17:09 2.77900 130.05781 38874 ft 452 kts 30°
2026-05-07 17:10 2.83319 130.08979 38874 ft 452 kts 30°
2026-05-07 17:10 2.88743 130.12165 38875 ft 452 kts 30°
2026-05-07 17:11 2.94165 130.15350 38872 ft 452 kts 30°
2026-05-07 17:11 2.99559 130.18514 38871 ft 452 kts 30°
2026-05-07 17:12 3.05021 130.21728 38872 ft 452 kts 30°
2026-05-07 17:12 3.10404 130.24905 38870 ft 453 kts 30°
2026-05-07 17:13 3.15838 130.28094 38868 ft 452 kts 30°
2026-05-07 17:13 3.21266 130.31280 38874 ft 452 kts 30°
2026-05-07 17:14 3.26689 130.34475 38871 ft 452 kts 30°
2026-05-07 17:14 3.32110 130.37669 38871 ft 452 kts 30°
2026-05-07 17:15 3.37531 130.40859 38871 ft 452 kts 30°
2026-05-07 17:15 3.42947 130.44049 38871 ft 452 kts 30°
2026-05-07 17:16 3.48364 130.47244 38867 ft 452 kts 30°
2026-05-07 17:16 3.53782 130.50429 38868 ft 452 kts 30°
2026-05-07 17:17 3.59202 130.53618 38871 ft 452 kts 30°
2026-05-07 17:17 3.64619 130.56806 38870 ft 452 kts 30°
2026-05-07 17:18 3.70035 130.59996 38870 ft 451 kts 30°
2026-05-07 17:18 3.75448 130.63190 38871 ft 451 kts 30°
2026-05-07 17:19 3.80859 130.66384 38870 ft 452 kts 30°
2026-05-07 17:19 3.86282 130.69578 38870 ft 452 kts 30°
2026-05-07 17:20 3.91705 130.72767 38870 ft 452 kts 30°
2026-05-07 17:20 3.97127 130.75967 38872 ft 452 kts 30°
2026-05-07 17:21 4.02913 130.78340 38865 ft 450 kts 12°
2026-05-07 17:21 4.09025 130.79726 38870 ft 450 kts 12°
2026-05-07 17:22 4.15130 130.81135 38865 ft 450 kts 12°
2026-05-07 17:22 4.21238 130.82548 38866 ft 450 kts 12°
2026-05-07 17:23 4.27348 130.83956 38864 ft 451 kts 12°
2026-05-07 17:23 4.33461 130.85360 38865 ft 451 kts 12°
2026-05-07 17:24 4.39574 130.86759 38871 ft 451 kts 12°
2026-05-07 17:24 4.45690 130.88165 38867 ft 451 kts 12°
2026-05-07 17:25 4.51809 130.89577 38867 ft 451 kts 12°
2026-05-07 17:25 4.57925 130.90984 38874 ft 451 kts 12°
2026-05-07 17:26 4.64043 130.92388 38871 ft 451 kts 12°
2026-05-07 17:26 4.70164 130.93790 38869 ft 451 kts 12°
2026-05-07 17:27 4.76245 130.95191 38868 ft 452 kts 12°
2026-05-07 17:27 4.82411 130.96614 38869 ft 452 kts 12°
2026-05-07 17:28 4.88493 130.98020 38872 ft 452 kts 12°
2026-05-07 17:28 4.94612 130.99438 38870 ft 451 kts 12°
2026-05-07 17:29 5.00729 131.00847 38873 ft 451 kts 12°
2026-05-07 17:29 5.06840 131.02250 38873 ft 451 kts 12°
2026-05-07 17:30 5.12957 131.03652 38873 ft 451 kts 12°
2026-05-07 17:30 5.19068 131.05065 38880 ft 451 kts 12°
2026-05-07 17:31 5.25177 131.06477 38876 ft 450 kts 12°
2026-05-07 17:31 5.31282 131.07891 38879 ft 450 kts 12°
2026-05-07 17:32 5.37392 131.09296 38875 ft 450 kts 12°
2026-05-07 17:32 5.42461 131.10462 38874 ft 450 kts 12°
2026-05-07 17:33 5.49594 131.12110 38873 ft 450 kts 12°
2026-05-07 17:33 5.55652 131.13507 38880 ft 449 kts 12°
2026-05-07 17:34 5.61739 131.14906 38883 ft 449 kts 12°
2026-05-07 17:34 5.67820 131.16311 38879 ft 448 kts 12°
2026-05-07 17:35 5.73893 131.17747 38883 ft 448 kts 13°
2026-05-07 17:35 5.79966 131.19180 38878 ft 448 kts 12°
2026-05-07 17:36 5.85055 131.20370 38878 ft 448 kts 12°
2026-05-07 17:36 5.91126 131.21790 38877 ft 448 kts 13°
2026-05-07 17:37 5.97154 131.23209 38878 ft 448 kts 13°
2026-05-07 17:37 6.03217 131.24639 38875 ft 448 kts 13°
2026-05-07 17:38 6.09286 131.26061 38877 ft 448 kts 12°
2026-05-07 17:38 6.15350 131.27479 38874 ft 447 kts 12°
2026-05-07 17:39 6.21410 131.28906 38868 ft 447 kts 12°
2026-05-07 17:39 6.27472 131.30330 38869 ft 447 kts 13°
2026-05-07 17:40 6.33532 131.31759 38869 ft 447 kts 13°
2026-05-07 17:40 6.39596 131.33186 38865 ft 448 kts 13°
2026-05-07 17:41 6.45665 131.34609 38866 ft 448 kts 13°
2026-05-07 17:41 6.51738 131.36036 38874 ft 448 kts 13°
2026-05-07 17:42 6.57799 131.37466 38875 ft 447 kts 13°
2026-05-07 17:42 6.63858 131.38889 38868 ft 447 kts 13°
2026-05-07 17:43 6.69919 131.40318 38871 ft 448 kts 13°
2026-05-07 17:43 6.75984 131.41750 38872 ft 448 kts 13°
2026-05-07 17:44 6.82046 131.43182 38872 ft 448 kts 13°
2026-05-07 17:44 6.88113 131.44610 38867 ft 448 kts 13°
2026-05-07 17:45 6.94186 131.46033 38869 ft 448 kts 13°
2026-05-07 17:45 7.00258 131.47468 38868 ft 448 kts 13°
2026-05-07 17:46 7.06328 131.48905 38871 ft 448 kts 13°
2026-05-07 17:46 7.12406 131.50337 38867 ft 449 kts 13°
2026-05-07 17:47 7.18447 131.51762 38864 ft 449 kts 13°
2026-05-07 17:47 7.24538 131.53197 38864 ft 450 kts 13°
2026-05-07 17:48 7.30638 131.54635 38869 ft 450 kts 13°
2026-05-07 17:48 7.36743 131.56076 38867 ft 451 kts 13°
2026-05-07 17:49 7.42844 131.57521 38866 ft 451 kts 13°
2026-05-07 17:49 7.48961 131.58968 38866 ft 451 kts 13°
2026-05-07 17:50 7.55081 131.60414 38865 ft 452 kts 13°
2026-05-07 17:50 7.61205 131.61856 38866 ft 452 kts 13°
2026-05-07 17:51 7.67331 131.63302 38875 ft 452 kts 13°
2026-05-07 17:51 7.73456 131.64761 38866 ft 453 kts 13°
2026-05-07 17:52 7.79595 131.66217 38870 ft 453 kts 13°
2026-05-07 17:52 7.85735 131.67664 38866 ft 453 kts 13°
2026-05-07 17:53 7.91884 131.69116 38867 ft 453 kts 13°
2026-05-07 17:53 7.98030 131.70570 38866 ft 454 kts 13°
2026-05-07 17:54 8.04179 131.72023 38866 ft 454 kts 12°
2026-05-07 17:54 8.10331 131.73485 38860 ft 454 kts 12°
2026-05-07 17:55 8.16484 131.74956 38870 ft 454 kts 12°
2026-05-07 17:55 8.22604 131.76399 38862 ft 455 kts 12°
2026-05-07 17:56 8.28811 131.77865 38858 ft 455 kts 13°
2026-05-07 17:56 8.34935 131.79327 38871 ft 455 kts 12°
2026-05-07 17:57 8.40106 131.80554 38880 ft 455 kts 13°
2026-05-07 17:57 8.47273 131.82258 38876 ft 455 kts 13°
2026-05-07 17:58 8.53439 131.83718 38867 ft 456 kts 12°
2026-05-07 17:58 8.59610 131.85184 38868 ft 455 kts 13°
2026-05-07 17:59 8.65783 131.86651 38871 ft 456 kts 13°
2026-05-07 17:59 8.71963 131.88115 38877 ft 456 kts 12°
2026-05-07 18:00 8.78141 131.89588 38876 ft 456 kts 12°
2026-05-07 18:00 8.84325 131.91063 38873 ft 457 kts 12°
2026-05-07 18:01 8.90511 131.92530 38872 ft 456 kts 13°
2026-05-07 18:01 8.96688 131.94002 38878 ft 456 kts 12°
2026-05-07 18:02 9.05970 131.96213 38858 ft 458 kts 13°
2026-05-07 18:03 9.12176 131.97692 38862 ft 459 kts 13°
2026-05-07 18:03 9.18354 131.99164 38860 ft 459 kts 12°
2026-05-07 18:04 9.24576 132.00648 38877 ft 460 kts 13°
2026-05-07 18:04 9.30799 132.02133 38871 ft 460 kts 12°
2026-05-07 18:05 9.37029 132.03627 38877 ft 460 kts 13°
2026-05-07 18:05 9.43264 132.05112 38876 ft 460 kts 12°
2026-05-07 18:06 9.49498 132.06600 38870 ft 460 kts 13°
2026-05-07 18:06 9.55728 132.08090 38879 ft 460 kts 12°
2026-05-07 18:07 9.61961 132.09581 38876 ft 460 kts 13°
2026-05-07 18:07 9.68198 132.11073 38872 ft 460 kts 12°
2026-05-07 18:08 9.74428 132.12567 38877 ft 460 kts 12°
2026-05-07 18:08 9.80667 132.14053 38884 ft 460 kts 12°
2026-05-07 18:09 9.86903 132.15540 38873 ft 461 kts 13°
2026-05-07 18:09 9.93143 132.17035 38875 ft 461 kts 12°
2026-05-07 18:10 9.99385 132.18537 38873 ft 461 kts 12°
2026-05-07 18:10 10.05633 132.20034 38887 ft 461 kts 12°
2026-05-07 18:11 10.11879 132.21532 38877 ft 461 kts 12°
2026-05-07 18:11 10.18128 132.23032 38877 ft 461 kts 12°
2026-05-07 18:12 10.24376 132.24525 38879 ft 461 kts 12°
2026-05-07 18:12 10.30628 132.26023 38881 ft 462 kts 12°
2026-05-07 18:13 10.36877 132.27527 38880 ft 462 kts 12°
2026-05-07 18:13 10.43085 132.29023 38876 ft 462 kts 12°
2026-05-07 18:14 10.49335 132.30528 38877 ft 462 kts 12°
2026-05-07 18:14 10.55594 132.32021 38878 ft 462 kts 12°
2026-05-07 18:15 10.61847 132.33522 38882 ft 462 kts 12°
2026-05-07 18:15 10.68100 132.35032 38878 ft 462 kts 12°
2026-05-07 18:16 10.74356 132.36541 38874 ft 462 kts 12°
2026-05-07 18:16 10.80614 132.38051 38874 ft 462 kts 12°
2026-05-07 18:17 10.86873 132.39562 38868 ft 462 kts 12°
2026-05-07 18:17 10.93133 132.41076 38872 ft 463 kts 12°
2026-05-07 18:18 10.99393 132.42581 38874 ft 463 kts 12°
2026-05-07 18:18 11.05669 132.44083 38871 ft 463 kts 12°
2026-05-07 18:19 11.11935 132.45596 38872 ft 463 kts 12°
2026-05-07 18:19 11.18209 132.47109 38877 ft 463 kts 12°
2026-05-07 18:20 11.24482 132.48623 38875 ft 463 kts 12°
2026-05-07 18:20 11.30750 132.50138 38874 ft 463 kts 12°
2026-05-07 18:21 11.37017 132.51647 38881 ft 463 kts 12°
2026-05-07 18:21 11.43287 132.53154 38879 ft 463 kts 12°
2026-05-07 18:22 11.49555 132.54671 38880 ft 463 kts 12°
2026-05-07 18:22 11.54764 132.55928 38882 ft 463 kts 12°
2026-05-07 18:23 11.61029 132.57440 38881 ft 463 kts 12°
2026-05-07 18:23 11.67291 132.58953 38885 ft 462 kts 12°
2026-05-07 18:24 11.73551 132.60470 38890 ft 462 kts 12°
2026-05-07 18:24 11.79802 132.61984 38890 ft 462 kts 11°
2026-05-07 18:25 11.86050 132.63498 38890 ft 461 kts 12°
2026-05-07 18:25 11.92296 132.65006 38895 ft 461 kts 12°
2026-05-07 18:26 11.98533 132.66514 38893 ft 460 kts 12°
2026-05-07 18:26 12.04750 132.68022 38891 ft 459 kts 12°
2026-05-07 18:27 12.10958 132.69525 38888 ft 458 kts 12°
2026-05-07 18:27 12.17161 132.71029 38897 ft 458 kts 11°
2026-05-07 18:28 12.23308 132.72517 38898 ft 456 kts 12°
2026-05-07 18:28 12.29479 132.74016 38899 ft 455 kts 11°
2026-05-07 18:29 12.35638 132.75510 38894 ft 455 kts 11°
2026-05-07 18:29 12.41786 132.77009 38896 ft 454 kts 12°
2026-05-07 18:30 12.47929 132.78503 38902 ft 453 kts 11°
2026-05-07 18:30 12.54052 132.79990 38902 ft 452 kts 11°
2026-05-07 18:31 12.60176 132.81485 38895 ft 452 kts 11°
2026-05-07 18:31 12.66287 132.82972 38900 ft 452 kts 11°
2026-05-07 18:32 12.72401 132.84464 38897 ft 452 kts 11°
2026-05-07 18:32 12.78518 132.85947 38900 ft 452 kts 11°
2026-05-07 18:33 12.84632 132.87434 38896 ft 452 kts 10°
2026-05-07 18:33 12.90745 132.88933 38897 ft 452 kts 11°
2026-05-07 18:34 12.96864 132.90423 38900 ft 452 kts 12°
2026-05-07 18:34 13.02991 132.91919 38895 ft 453 kts 11°
2026-05-07 18:35 13.09123 132.93421 38894 ft 453 kts 12°
2026-05-07 18:35 13.15261 132.94917 38895 ft 454 kts 11°
2026-05-07 18:36 13.21406 132.96415 38910 ft 454 kts 11°
2026-05-07 18:36 13.27544 132.97916 38909 ft 453 kts 11°
2026-05-07 18:37 13.33667 132.99424 38911 ft 452 kts 11°
2026-05-07 18:37 13.39788 133.00934 38907 ft 452 kts 11°
2026-05-07 18:38 13.45905 133.02429 38914 ft 452 kts 10°
2026-05-07 18:38 13.51976 133.03909 38913 ft 451 kts 10°
2026-05-07 18:39 13.58075 133.05401 38914 ft 450 kts 10°
2026-05-07 18:39 13.64169 133.06900 38912 ft 450 kts 10°
2026-05-07 18:40 13.70258 133.08404 38915 ft 450 kts 10°
2026-05-07 18:40 13.76343 133.09894 38911 ft 450 kts 10°
2026-05-07 18:41 13.82435 133.11389 38910 ft 450 kts 10°
2026-05-07 18:41 13.88525 133.12888 38909 ft 450 kts 10°
2026-05-07 18:42 13.94617 133.14388 38909 ft 450 kts 10°
2026-05-07 18:42 14.00711 133.15881 38909 ft 450 kts 10°
2026-05-07 18:43 14.06801 133.17380 38909 ft 450 kts 10°
2026-05-07 18:43 14.12888 133.18889 38911 ft 450 kts 10°
2026-05-07 18:44 14.18974 133.20392 38910 ft 450 kts 10°
2026-05-07 18:44 14.25055 133.21900 38908 ft 450 kts 10°
2026-05-07 18:45 14.31097 133.23387 38909 ft 449 kts 10°
2026-05-07 18:45 14.37185 133.24876 38910 ft 450 kts 10°
2026-05-07 18:46 14.43267 133.26381 38921 ft 450 kts 10°
2026-05-07 18:46 14.49353 133.27895 38918 ft 450 kts 10°
2026-05-07 18:47 14.55443 133.29401 38914 ft 450 kts 10°
2026-05-07 18:47 14.61534 133.30910 38916 ft 450 kts 10°
2026-05-07 18:48 14.67630 133.32420 38919 ft 451 kts 10°
2026-05-07 18:48 14.73728 133.33931 38917 ft 451 kts
2026-05-07 18:49 14.79838 133.35452 38919 ft 451 kts
2026-05-07 18:49 14.85945 133.36959 38918 ft 451 kts
2026-05-07 18:50 14.92050 133.38472 38921 ft 451 kts
2026-05-07 18:50 14.98148 133.39987 38924 ft 451 kts
2026-05-07 18:51 15.04255 133.41509 38923 ft 451 kts
2026-05-07 18:51 15.10361 133.43025 38923 ft 451 kts
2026-05-07 18:52 15.16463 133.44548 38923 ft 451 kts
2026-05-07 18:52 15.22566 133.46068 38928 ft 451 kts
2026-05-07 18:53 15.28671 133.47596 38929 ft 451 kts
2026-05-07 18:53 15.34773 133.49122 38929 ft 451 kts
2026-05-07 18:54 15.40871 133.50640 38930 ft 450 kts
2026-05-07 18:54 15.46964 133.52145 38932 ft 450 kts
2026-05-07 18:55 15.53060 133.53670 38929 ft 451 kts
2026-05-07 18:55 15.59151 133.55206 38929 ft 450 kts
2026-05-07 18:56 15.65245 133.56716 38939 ft 450 kts
2026-05-07 18:56 15.71339 133.58233 38935 ft 450 kts
2026-05-07 18:57 15.77389 133.59758 38941 ft 450 kts
2026-05-07 18:57 15.83474 133.61290 38938 ft 450 kts
2026-05-07 18:58 15.89565 133.62817 38947 ft 450 kts
2026-05-07 18:58 15.95655 133.64346 38947 ft 450 kts
2026-05-07 18:59 16.01748 133.65876 38942 ft 451 kts
2026-05-07 18:59 16.07845 133.67411 38945 ft 451 kts
2026-05-07 19:00 16.13946 133.68945 38946 ft 451 kts
2026-05-07 19:00 16.20044 133.70478 38944 ft 451 kts
2026-05-07 19:01 16.26146 133.72008 38946 ft 451 kts
2026-05-07 19:01 16.32249 133.73547 38938 ft 451 kts
2026-05-07 19:02 16.38344 133.75082 38940 ft 451 kts
2026-05-07 19:02 16.44442 133.76618 38939 ft 451 kts
2026-05-07 19:03 16.50535 133.78157 38945 ft 451 kts
2026-05-07 19:03 16.56631 133.79691 38945 ft 451 kts
2026-05-07 19:04 16.62733 133.81239 38955 ft 451 kts
2026-05-07 19:04 16.68832 133.82781 38959 ft 451 kts
2026-05-07 19:05 16.74931 133.84322 38953 ft 451 kts
2026-05-07 19:05 16.81026 133.85861 38957 ft 451 kts
2026-05-07 19:06 16.87119 133.87407 38952 ft 451 kts
2026-05-07 19:06 16.96265 133.89731 38953 ft 451 kts
2026-05-07 19:07 17.02326 133.91266 38953 ft 451 kts
2026-05-07 19:07 17.08424 133.92818 38963 ft 451 kts
2026-05-07 19:08 17.14526 133.94371 38959 ft 451 kts
2026-05-07 19:08 17.20624 133.95917 38960 ft 451 kts
2026-05-07 19:09 17.26720 133.97463 38957 ft 451 kts
2026-05-07 19:09 17.32815 133.99014 38963 ft 451 kts
2026-05-07 19:10 17.38907 134.00571 38966 ft 451 kts
2026-05-07 19:10 17.45001 134.02124 38964 ft 451 kts
2026-05-07 19:11 17.50066 134.03415 38966 ft 451 kts
2026-05-07 19:11 17.57192 134.05234 38974 ft 451 kts
2026-05-07 19:12 17.62261 134.06523 38966 ft 451 kts
2026-05-07 19:12 17.68359 134.08087 38969 ft 451 kts
2026-05-07 19:13 17.74461 134.09653 38974 ft 452 kts
2026-05-07 19:13 17.80571 134.11216 38977 ft 452 kts
2026-05-07 19:14 17.86673 134.12779 38977 ft 452 kts
2026-05-07 19:14 17.92779 134.14350 38980 ft 451 kts
2026-05-07 19:15 17.98878 134.15915 38974 ft 451 kts
2026-05-07 19:15 18.04974 134.17475 38986 ft 451 kts
2026-05-07 19:16 18.11067 134.19042 38980 ft 451 kts
2026-05-07 19:16 18.17154 134.20615 38979 ft 450 kts
2026-05-07 19:17 18.23243 134.22172 38985 ft 450 kts
2026-05-07 19:17 18.29331 134.23737 38986 ft 450 kts
2026-05-07 19:18 18.35417 134.25306 38987 ft 450 kts 10°
2026-05-07 19:18 18.41502 134.26881 38988 ft 450 kts 10°
2026-05-07 19:19 18.47589 134.28455 38991 ft 450 kts
2026-05-07 19:19 18.53674 134.30022 38990 ft 450 kts 10°
2026-05-07 19:20 18.59761 134.31603 38989 ft 450 kts 10°
2026-05-07 19:20 18.65804 134.33169 38988 ft 450 kts 10°
2026-05-07 19:21 18.71888 134.34734 38988 ft 450 kts 10°
2026-05-07 19:21 18.77974 134.36310 38993 ft 450 kts 10°
2026-05-07 19:22 18.84057 134.37883 38995 ft 450 kts 10°
2026-05-07 19:22 18.90135 134.39461 38993 ft 450 kts 10°
2026-05-07 19:23 18.96217 134.41045 38994 ft 450 kts 10°
2026-05-07 19:23 19.02298 134.42621 38993 ft 450 kts 10°
2026-05-07 19:24 19.08377 134.44196 38993 ft 450 kts 10°
2026-05-07 19:24 19.14454 134.45781 38994 ft 450 kts 10°
2026-05-07 19:25 19.20534 134.47370 39000 ft 450 kts 10°
2026-05-07 19:25 19.26619 134.48956 38999 ft 450 kts 10°
2026-05-07 19:26 19.32701 134.50541 39003 ft 450 kts 10°
2026-05-07 19:26 19.38782 134.52126 39007 ft 450 kts 10°
2026-05-07 19:27 19.44861 134.53712 39002 ft 450 kts 10°
2026-05-07 19:27 19.50936 134.55303 39002 ft 450 kts 10°
2026-05-07 19:28 19.57015 134.56896 39004 ft 450 kts 10°
2026-05-07 19:28 19.63093 134.58482 39010 ft 450 kts 10°
2026-05-07 19:29 19.69168 134.60071 39007 ft 450 kts 10°
2026-05-07 19:29 19.75239 134.61662 39008 ft 449 kts 10°
2026-05-07 19:30 19.81310 134.63261 39004 ft 449 kts 10°
2026-05-07 19:30 19.87381 134.64859 39007 ft 449 kts
2026-05-07 19:31 19.93450 134.66443 39010 ft 449 kts
2026-05-07 19:31 19.99521 134.68031 39009 ft 449 kts 10°
2026-05-07 19:32 20.05590 134.69640 39014 ft 449 kts 10°
2026-05-07 19:32 20.11660 134.71244 39012 ft 449 kts 10°
2026-05-07 19:33 20.17729 134.72850 39009 ft 449 kts
2026-05-07 19:33 20.23795 134.74448 39008 ft 449 kts
2026-05-07 19:34 20.29860 134.76042 39013 ft 449 kts
2026-05-07 19:34 20.35920 134.77646 39010 ft 449 kts
2026-05-07 19:35 20.41940 134.79245 39011 ft 449 kts
2026-05-07 19:35 20.48003 134.80847 39010 ft 449 kts
2026-05-07 19:36 20.54066 134.82448 39019 ft 449 kts
2026-05-07 19:36 20.60130 134.84056 39018 ft 449 kts
2026-05-07 19:37 20.66198 134.85669 39018 ft 449 kts
2026-05-07 19:37 20.72268 134.87280 39032 ft 449 kts
2026-05-07 19:38 20.78334 134.88897 39026 ft 449 kts
2026-05-07 19:38 20.84402 134.90514 39026 ft 449 kts
2026-05-07 19:39 20.90467 134.92126 39019 ft 449 kts
2026-05-07 19:39 20.96537 134.93738 39020 ft 449 kts
2026-05-07 19:40 21.02653 134.94699 39023 ft 441 kts 355°
2026-05-07 19:40 21.08786 134.94741 39022 ft 441 kts 356°
2026-05-07 19:41 21.14923 134.94796 39023 ft 441 kts 356°
2026-05-07 19:41 21.21059 134.94860 39027 ft 441 kts 356°
2026-05-07 19:42 21.27198 134.94919 39032 ft 441 kts 356°
2026-05-07 19:42 21.33335 134.94975 39032 ft 441 kts 356°
2026-05-07 19:43 21.39475 134.95029 39038 ft 441 kts 356°
2026-05-07 19:43 21.45613 134.95088 39040 ft 441 kts 356°
2026-05-07 19:44 21.51752 134.95141 39035 ft 441 kts 356°
2026-05-07 19:44 21.57891 134.95191 39037 ft 441 kts 356°
2026-05-07 19:45 21.64030 134.95246 39043 ft 441 kts 356°
2026-05-07 19:45 21.70125 134.95306 39039 ft 441 kts 356°
2026-05-07 19:46 21.76257 134.95368 39038 ft 441 kts 356°
2026-05-07 19:46 21.82389 134.95429 39038 ft 440 kts 356°
2026-05-07 19:47 21.88519 134.95482 39046 ft 440 kts 356°
2026-05-07 19:47 21.94636 134.95534 39040 ft 440 kts 356°
2026-05-07 19:48 22.00760 134.95589 39038 ft 440 kts 356°
2026-05-07 19:48 22.06879 134.95646 39038 ft 440 kts 356°
2026-05-07 19:49 22.13003 134.95706 39037 ft 440 kts 356°
2026-05-07 19:49 22.19130 134.95766 39037 ft 440 kts 356°
2026-05-07 19:50 22.25260 134.95827 39037 ft 440 kts 356°
2026-05-07 19:50 22.31386 134.95881 39037 ft 440 kts 356°
2026-05-07 19:51 22.37511 134.95931 39046 ft 440 kts 356°
2026-05-07 19:51 22.43630 134.95991 39043 ft 440 kts 356°
2026-05-07 19:52 22.49749 134.96054 39042 ft 439 kts 356°
2026-05-07 19:52 22.55861 134.96110 39034 ft 439 kts 356°
2026-05-07 19:53 22.61977 134.96166 39039 ft 439 kts 356°
2026-05-07 19:53 22.68092 134.96220 39042 ft 439 kts 356°
2026-05-07 19:54 22.74208 134.96279 39042 ft 440 kts 356°
2026-05-07 19:54 22.80326 134.96339 39040 ft 440 kts 356°
2026-05-07 19:55 22.86445 134.96395 39044 ft 440 kts 356°
2026-05-07 19:55 22.91570 134.96435 39046 ft 439 kts 356°
2026-05-07 19:56 22.97643 134.96489 39042 ft 439 kts 356°
2026-05-07 19:56 23.03757 134.96555 39051 ft 439 kts 356°
2026-05-07 19:57 23.09902 134.96608 39049 ft 438 kts 356°
2026-05-07 19:57 23.15955 134.96664 39043 ft 438 kts 356°
2026-05-07 19:58 23.22043 134.96725 39043 ft 437 kts 356°
2026-05-07 19:58 23.28126 134.96786 39044 ft 437 kts 356°
2026-05-07 19:59 23.34206 134.96847 39043 ft 437 kts 356°
2026-05-07 19:59 23.40286 134.96904 39043 ft 437 kts 356°
2026-05-07 20:00 23.46371 134.96959 39057 ft 437 kts 356°
2026-05-07 20:00 23.52448 134.97014 39054 ft 436 kts 356°
2026-05-07 20:01 23.58520 134.97074 39050 ft 436 kts 356°
2026-05-07 20:01 23.64585 134.97132 39053 ft 436 kts 356°
2026-05-07 20:02 23.70640 134.97188 39057 ft 435 kts 356°
2026-05-07 20:02 23.76690 134.97237 39055 ft 434 kts 356°
2026-05-07 20:03 23.82728 134.97309 39053 ft 434 kts 356°
2026-05-07 20:03 23.88757 134.97376 39051 ft 433 kts 356°
2026-05-07 20:04 23.94779 134.97428 39059 ft 432 kts 356°
2026-05-07 20:04 24.00784 134.97472 39055 ft 431 kts 356°
2026-05-07 20:05 24.06775 134.97530 39053 ft 430 kts 357°
2026-05-07 20:05 24.12721 134.97593 39050 ft 430 kts 357°
2026-05-07 20:06 24.18694 134.97650 39052 ft 429 kts 357°
2026-05-07 20:06 24.24650 134.97707 39050 ft 428 kts 357°
2026-05-07 20:07 24.30601 134.97765 39051 ft 427 kts 357°
2026-05-07 20:07 24.36545 134.97815 39057 ft 427 kts 357°
2026-05-07 20:08 24.42487 134.97867 39052 ft 427 kts 357°
2026-05-07 20:08 24.48426 134.97932 39047 ft 427 kts 357°
2026-05-07 20:09 24.54359 134.97992 39049 ft 426 kts 357°
2026-05-07 20:10 24.63250 134.98078 39048 ft 426 kts 356°
2026-05-07 20:10 24.69178 134.98130 39055 ft 426 kts 356°
2026-05-07 20:11 24.75098 134.98181 39048 ft 426 kts 357°
2026-05-07 20:11 24.81022 134.98242 39054 ft 426 kts 356°
2026-05-07 20:12 24.86948 134.98300 39050 ft 426 kts 356°
2026-05-07 20:12 24.92868 134.98362 39050 ft 425 kts 356°
2026-05-07 20:13 24.98749 134.98421 39049 ft 425 kts 356°
2026-05-07 20:13 25.04663 134.98475 39055 ft 425 kts 356°
2026-05-07 20:14 25.10580 134.98528 39049 ft 425 kts 356°
2026-05-07 20:14 25.16496 134.98591 39051 ft 425 kts 356°
2026-05-07 20:15 25.22409 134.98646 39048 ft 425 kts 356°
2026-05-07 20:15 25.28325 134.98702 39056 ft 425 kts 356°
2026-05-07 20:16 25.34244 134.98764 39053 ft 425 kts 356°
2026-05-07 20:16 25.40156 134.98822 39052 ft 425 kts 356°
2026-05-07 20:17 25.46057 134.98816 39052 ft 422 kts 351°
2026-05-07 20:17 25.51637 134.97198 39049 ft 412 kts 331°
2026-05-07 20:18 25.56448 134.93828 39044 ft 409 kts 323°
2026-05-07 20:18 25.61147 134.90262 39044 ft 410 kts 323°
2026-05-07 20:19 25.65852 134.86695 39044 ft 410 kts 323°
2026-05-07 20:19 25.70553 134.83124 39045 ft 410 kts 323°
2026-05-07 20:20 25.75256 134.79550 39048 ft 410 kts 323°
2026-05-07 20:20 25.79955 134.75974 39053 ft 410 kts 323°
2026-05-07 20:21 25.84652 134.72386 39051 ft 410 kts 323°
2026-05-07 20:21 25.89347 134.68793 39047 ft 410 kts 323°
2026-05-07 20:22 25.94039 134.65203 39047 ft 410 kts 323°
2026-05-07 20:22 25.98708 134.61642 39047 ft 410 kts 323°
2026-05-07 20:23 26.03406 134.58058 39048 ft 409 kts 323°
2026-05-07 20:23 26.08098 134.54469 39062 ft 409 kts 323°
2026-05-07 20:24 26.12791 134.50872 39056 ft 409 kts 323°
2026-05-07 20:24 26.17469 134.47273 39055 ft 409 kts 323°
2026-05-07 20:25 26.22141 134.43673 39046 ft 408 kts 323°
2026-05-07 20:25 26.26821 134.40081 39047 ft 408 kts 323°
2026-05-07 20:26 26.31492 134.36493 39047 ft 408 kts 323°
2026-05-07 20:26 26.36155 134.32901 39049 ft 407 kts 323°
2026-05-07 20:27 26.40810 134.29304 39058 ft 407 kts 322°
2026-05-07 20:27 26.45465 134.25709 39050 ft 407 kts 322°
2026-05-07 20:28 26.50115 134.22117 39056 ft 406 kts 322°
2026-05-07 20:28 26.54754 134.18528 39050 ft 405 kts 322°
2026-05-07 20:29 26.59386 134.14948 39051 ft 404 kts 322°
2026-05-07 20:29 26.64007 134.11370 39048 ft 404 kts 322°
2026-05-07 20:30 26.68612 134.07788 39039 ft 403 kts 322°
2026-05-07 20:30 26.73212 134.04209 39052 ft 402 kts 322°
2026-05-07 20:31 26.77803 134.00637 39051 ft 401 kts 322°
2026-05-07 20:31 26.82380 133.97076 39045 ft 400 kts 322°
2026-05-07 20:32 26.86951 133.93513 39042 ft 400 kts 322°
2026-05-07 20:32 26.91510 133.89959 39039 ft 399 kts 322°
2026-05-07 20:33 26.96061 133.86402 39037 ft 399 kts 322°
2026-05-07 20:33 27.00576 133.82868 39038 ft 398 kts 322°
2026-05-07 20:34 27.05117 133.79313 39042 ft 398 kts 321°
2026-05-07 20:34 27.09656 133.75762 39039 ft 397 kts 321°
2026-05-07 20:35 27.14189 133.72209 39040 ft 397 kts 321°
2026-05-07 20:35 27.18714 133.68665 39037 ft 396 kts 321°
2026-05-07 20:36 27.23229 133.65113 39033 ft 396 kts 321°
2026-05-07 20:36 27.27738 133.61553 39038 ft 396 kts 321°
2026-05-07 20:37 27.32247 133.58003 39035 ft 396 kts 321°
2026-05-07 20:37 27.36757 133.54454 39046 ft 395 kts 321°
2026-05-07 20:38 27.41259 133.50899 39036 ft 395 kts 321°
2026-05-07 20:38 27.45750 133.47342 39034 ft 395 kts 321°
2026-05-07 20:39 27.50240 133.43791 39032 ft 394 kts 321°
2026-05-07 20:39 27.54727 133.40243 39034 ft 394 kts 321°
2026-05-07 20:40 27.59216 133.36700 39033 ft 394 kts 321°
2026-05-07 20:40 27.63665 133.33177 39032 ft 393 kts 321°
2026-05-07 20:41 27.68142 133.29623 39037 ft 393 kts 320°
2026-05-07 20:41 27.72611 133.26067 39034 ft 393 kts 320°
2026-05-07 20:42 27.77080 133.22506 39043 ft 393 kts 320°
2026-05-07 20:42 27.81548 133.18945 39037 ft 393 kts 320°
2026-05-07 20:43 27.86019 133.15381 39037 ft 393 kts 320°
2026-05-07 20:43 27.90490 133.11816 39037 ft 393 kts 320°
2026-05-07 20:44 27.94207 133.08856 39035 ft 393 kts 320°
2026-05-07 20:44 27.98672 133.05296 39040 ft 393 kts 320°
2026-05-07 20:45 28.03138 133.01736 39033 ft 393 kts 320°
2026-05-07 20:45 28.07601 132.98173 39028 ft 392 kts 320°
2026-05-07 20:46 28.12063 132.94613 39030 ft 392 kts 320°
2026-05-07 20:46 28.16514 132.91040 39030 ft 392 kts 320°
2026-05-07 20:47 28.20968 132.87456 39033 ft 392 kts 320°
2026-05-07 20:47 28.25427 132.83886 39031 ft 393 kts 320°
2026-05-07 20:48 28.29889 132.80313 39048 ft 393 kts 320°
2026-05-07 20:48 28.34346 132.76735 39039 ft 392 kts 320°
2026-05-07 20:49 28.38802 132.73159 39041 ft 392 kts 320°
2026-05-07 20:49 28.43242 132.69568 39033 ft 392 kts 320°
2026-05-07 20:50 28.47681 132.65977 39029 ft 391 kts 320°
2026-05-07 20:50 28.52116 132.62385 39029 ft 391 kts 319°
2026-05-07 20:51 28.56552 132.58791 39031 ft 392 kts 319°
2026-05-07 20:51 28.60995 132.55197 39028 ft 392 kts 319°
2026-05-07 20:52 28.65445 132.51587 39025 ft 393 kts 319°
2026-05-07 20:52 28.69892 132.47971 39025 ft 393 kts 319°
2026-05-07 20:53 28.74312 132.44377 39025 ft 393 kts 319°
2026-05-07 20:53 28.78764 132.40753 39020 ft 393 kts 319°
2026-05-07 20:54 28.83223 132.37128 39028 ft 394 kts 319°
2026-05-07 20:54 28.87679 132.33497 39027 ft 394 kts 319°
2026-05-07 20:55 28.92139 132.29856 39038 ft 394 kts 319°
2026-05-07 20:55 28.96593 132.26219 39032 ft 393 kts 319°
2026-05-07 20:56 29.01042 132.22588 39029 ft 393 kts 319°
2026-05-07 20:56 29.05477 132.18952 39034 ft 392 kts 319°
2026-05-07 20:57 29.09906 132.15321 39028 ft 391 kts 319°
2026-05-07 20:57 29.14323 132.11691 39024 ft 391 kts 319°
2026-05-07 20:58 29.18734 132.08063 39022 ft 390 kts 319°
2026-05-07 20:58 29.23144 132.04439 39037 ft 390 kts 318°
2026-05-07 20:59 29.27545 132.00807 39026 ft 390 kts 318°
2026-05-07 20:59 29.31954 131.97184 39030 ft 390 kts 318°
2026-05-07 21:00 29.36365 131.93549 39015 ft 391 kts 318°
2026-05-07 21:00 29.40781 131.89903 39011 ft 391 kts 318°
2026-05-07 21:01 29.45201 131.86245 39014 ft 392 kts 318°
2026-05-07 21:01 29.49619 131.82576 39015 ft 392 kts 318°
2026-05-07 21:02 29.54044 131.78906 39020 ft 392 kts 318°
2026-05-07 21:02 29.58469 131.75239 39025 ft 392 kts 317°
2026-05-07 21:03 29.62984 131.71706 39017 ft 394 kts 321°
2026-05-07 21:03 29.67619 131.68346 39009 ft 394 kts 321°
2026-05-07 21:04 29.72255 131.64994 39008 ft 393 kts 321°
2026-05-07 21:04 29.76854 131.61602 39006 ft 392 kts 320°
2026-05-07 21:05 29.81410 131.58215 39005 ft 392 kts 320°
2026-05-07 21:05 29.85997 131.54803 39008 ft 392 kts 320°
2026-05-07 21:06 29.90571 131.51395 38997 ft 391 kts 320°
2026-05-07 21:06 29.95142 131.47987 38995 ft 392 kts 320°
2026-05-07 21:07 29.99722 131.44567 38996 ft 392 kts 320°
2026-05-07 21:07 30.04304 131.41154 38997 ft 392 kts 320°
2026-05-07 21:08 30.08894 131.37740 39002 ft 393 kts 320°
2026-05-07 21:08 30.13484 131.34312 39007 ft 393 kts 320°
2026-05-07 21:09 30.18070 131.30883 39018 ft 393 kts 320°
2026-05-07 21:09 30.22655 131.27452 39011 ft 392 kts 320°
2026-05-07 21:10 30.27236 131.24014 39008 ft 392 kts 320°
2026-05-07 21:10 30.31816 131.20572 39007 ft 392 kts 320°
2026-05-07 21:11 30.36394 131.17130 39008 ft 392 kts 320°
2026-05-07 21:11 30.43259 131.11961 39017 ft 393 kts 319°
2026-05-07 21:12 30.47789 131.08540 38992 ft 389 kts 319°
2026-05-07 21:12 30.52312 131.05123 38981 ft 388 kts 319°
2026-05-07 21:13 30.56836 131.01701 38981 ft 388 kts 319°
2026-05-07 21:13 30.61600 130.98631 38982 ft 402 kts 332°
2026-05-07 21:14 30.66966 130.96652 38987 ft 405 kts 333°
2026-05-07 21:14 30.72343 130.94662 39012 ft 405 kts 333°
2026-05-07 21:15 30.77716 130.92668 39003 ft 405 kts 333°
2026-05-07 21:15 30.83094 130.90681 39012 ft 405 kts 333°
2026-05-07 21:16 30.88465 130.88698 39007 ft 405 kts 333°
2026-05-07 21:16 30.93835 130.86709 39006 ft 405 kts 333°
2026-05-07 21:17 30.99193 130.84711 39000 ft 403 kts 333°
2026-05-07 21:17 31.04526 130.82725 38992 ft 402 kts 333°
2026-05-07 21:18 31.09865 130.80741 38989 ft 403 kts 333°
2026-05-07 21:18 31.15206 130.78748 38989 ft 403 kts 333°
2026-05-07 21:19 31.20560 130.76746 38996 ft 404 kts 333°
2026-05-07 21:19 31.25919 130.74748 39011 ft 404 kts 333°
2026-05-07 21:20 31.31236 130.72757 39012 ft 404 kts 333°
2026-05-07 21:20 31.36592 130.70750 39009 ft 404 kts 333°
2026-05-07 21:21 31.41949 130.68751 39008 ft 404 kts 333°
2026-05-07 21:21 31.47294 130.66738 39006 ft 404 kts 333°
2026-05-07 21:22 31.52640 130.64720 39003 ft 403 kts 333°
2026-05-07 21:22 31.57986 130.62708 39004 ft 403 kts 333°
2026-05-07 21:23 31.63328 130.60693 39002 ft 403 kts 333°
2026-05-07 21:23 31.68668 130.58687 38992 ft 405 kts 335°
2026-05-07 21:24 31.71479 130.58085 39023 ft 418 kts 345°
2026-05-07 21:24 31.74389 130.57819 39016 ft 419 kts 346°
2026-05-07 21:24 31.80207 130.57274 38996 ft 419 kts 345°
2026-05-07 21:25 31.86019 130.56714 38992 ft 419 kts 345°
2026-05-07 21:25 31.91835 130.56151 39002 ft 420 kts 345°
2026-05-07 21:26 31.97658 130.55594 39018 ft 420 kts 345°
2026-05-07 21:26 32.03481 130.55024 39015 ft 420 kts 345°
2026-05-07 21:27 32.09308 130.54454 39012 ft 420 kts 345°
2026-05-07 21:27 32.15139 130.53899 39038 ft 421 kts 345°
2026-05-07 21:28 32.20970 130.53285 39025 ft 420 kts 344°
2026-05-07 21:28 32.26740 130.52539 39015 ft 420 kts 343°
2026-05-07 21:29 32.32554 130.51823 39007 ft 422 kts 345°
2026-05-07 21:29 32.38438 130.51420 39023 ft 425 kts 347°
2026-05-07 21:30 32.44340 130.51058 39013 ft 424 kts 346°
2026-05-07 21:30 32.50216 130.50531 39005 ft 423 kts 345°
2026-05-07 21:31 32.56083 130.49932 39003 ft 423 kts 345°
2026-05-07 21:31 32.61954 130.49349 39013 ft 424 kts 345°
2026-05-07 21:32 32.67844 130.48799 39001 ft 425 kts 345°
2026-05-07 21:32 32.72742 130.48354 38996 ft 425 kts 345°
2026-05-07 21:33 32.78636 130.47807 39018 ft 425 kts 345°
2026-05-07 21:33 32.84540 130.47254 38977 ft 426 kts 345°
2026-05-07 21:34 32.90441 130.46684 38980 ft 425 kts 345°
2026-05-07 21:34 32.96340 130.46057 38983 ft 425 kts 344°
2026-05-07 21:35 33.02236 130.45410 38999 ft 426 kts 344°
2026-05-07 21:35 33.08141 130.44783 38986 ft 427 kts 345°
2026-05-07 21:36 33.14061 130.44199 38987 ft 427 kts 345°
2026-05-07 21:36 33.19985 130.43627 38981 ft 427 kts 345°
2026-05-07 21:37 33.25903 130.43062 38974 ft 426 kts 345°
2026-05-07 21:37 33.31811 130.42500 38965 ft 426 kts 345°
2026-05-07 21:38 33.37719 130.41920 38968 ft 426 kts 344°
2026-05-07 21:38 33.43632 130.41322 38981 ft 426 kts 345°
2026-05-07 21:39 33.49540 130.40742 38977 ft 425 kts 345°
2026-05-07 21:39 33.55428 130.40157 38969 ft 425 kts 344°
2026-05-07 21:40 33.61327 130.39562 38970 ft 425 kts 345°
2026-05-07 21:40 33.67013 130.38292 38970 ft 404 kts 329°
2026-05-07 21:41 33.69523 130.36893 38969 ft 392 kts 319°
2026-05-07 21:41 33.71733 130.35065 38969 ft 381 kts 312°
2026-05-07 21:41 33.75885 130.31094 38969 ft 382 kts 312°
2026-05-07 21:42 33.80064 130.27139 38976 ft 382 kts 313°
2026-05-07 21:42 33.84210 130.23207 38997 ft 382 kts 312°
2026-05-07 21:43 33.88373 130.19239 38990 ft 381 kts 312°
2026-05-07 21:43 33.92528 130.15281 39008 ft 381 kts 312°
2026-05-07 21:44 33.96663 130.11327 38972 ft 378 kts 311°
2026-05-07 21:44 34.00770 130.07387 38968 ft 378 kts 312°
2026-05-07 21:45 34.04890 130.03440 38970 ft 379 kts 311°
2026-05-07 21:45 34.09017 129.99484 38995 ft 379 kts 311°
2026-05-07 21:46 34.13141 129.95532 38987 ft 378 kts 311°
2026-05-07 21:46 34.17253 129.91579 38985 ft 378 kts 311°
2026-05-07 21:47 34.21358 129.87622 38983 ft 377 kts 311°
2026-05-07 21:47 34.25464 129.83674 39001 ft 377 kts 311°
2026-05-07 21:48 34.29581 129.79725 39000 ft 378 kts 311°
2026-05-07 21:48 34.33693 129.75799 38970 ft 376 kts 311°
2026-05-07 21:49 34.37773 129.71896 38965 ft 377 kts 311°
2026-05-07 21:49 34.41887 129.67957 38966 ft 377 kts 311°
2026-05-07 21:50 34.46004 129.64008 38977 ft 378 kts 311°
2026-05-07 21:50 34.50120 129.60049 38979 ft 378 kts 311°
2026-05-07 21:51 34.54243 129.56085 38990 ft 378 kts 311°
2026-05-07 21:51 34.58364 129.52112 38973 ft 378 kts 311°
2026-05-07 21:52 34.62480 129.48143 38964 ft 378 kts 311°
2026-05-07 21:52 34.66596 129.44167 38966 ft 379 kts 311°
2026-05-07 21:53 34.70720 129.40173 38964 ft 380 kts 311°
2026-05-07 21:53 34.74853 129.36169 38970 ft 380 kts 311°
2026-05-07 21:54 34.78995 129.32162 38983 ft 381 kts 311°
2026-05-07 21:54 34.83149 129.28153 38992 ft 381 kts 311°
2026-05-07 21:55 34.87316 129.24138 38976 ft 382 kts 311°
2026-05-07 21:55 34.89374 129.22155 38963 ft 371 kts 311°
2026-05-07 21:55 34.91369 129.20244 38960 ft 359 kts 310°
2026-05-07 21:56 34.95221 129.16529 38959 ft 351 kts 310°
2026-05-07 21:56 34.99027 129.12813 38961 ft 350 kts 310°
2026-05-07 21:57 35.02825 129.09113 38966 ft 348 kts 310°
2026-05-07 21:57 35.06612 129.05441 38967 ft 347 kts 310°
2026-05-07 21:58 35.10385 129.01763 38967 ft 347 kts 310°
2026-05-07 21:58 35.14133 128.98075 38967 ft 346 kts 309°
2026-05-07 21:59 35.17865 128.94359 38947 ft 346 kts 309°
2026-05-07 21:59 35.21597 128.90644 38954 ft 345 kts 309°
2026-05-07 22:00 35.25319 128.86965 38951 ft 343 kts 309°
2026-05-07 22:00 35.29029 128.83306 38954 ft 342 kts 309°
2026-05-07 22:01 35.32739 128.79658 38957 ft 342 kts 309°
2026-05-07 22:01 35.36447 128.76012 38963 ft 342 kts 309°
2026-05-07 22:02 35.40154 128.72363 38972 ft 342 kts 309°
2026-05-07 22:02 35.43857 128.68714 38976 ft 342 kts 309°
2026-05-07 22:03 35.47535 128.65085 39018 ft 341 kts 309°
2026-05-07 22:03 35.51226 128.61472 38982 ft 338 kts 309°
2026-05-07 22:04 35.54930 128.57907 38989 ft 338 kts 309°
2026-05-07 22:04 35.58632 128.54356 38986 ft 338 kts 309°
2026-05-07 22:05 35.62335 128.50803 38985 ft 338 kts 309°
2026-05-07 22:05 35.66036 128.47246 38987 ft 338 kts 309°
2026-05-07 22:06 35.69737 128.43690 38986 ft 338 kts 309°
2026-05-07 22:06 35.73437 128.40135 38983 ft 338 kts 309°
2026-05-07 22:07 35.77137 128.36575 38985 ft 338 kts 309°
2026-05-07 22:07 35.80831 128.33008 38987 ft 337 kts 309°
2026-05-07 22:08 35.84526 128.29454 38993 ft 336 kts 309°
2026-05-07 22:08 35.88204 128.25964 38988 ft 336 kts 309°
2026-05-07 22:09 35.91904 128.22457 38992 ft 335 kts 309°
2026-05-07 22:09 35.95599 128.18940 39011 ft 336 kts 309°
2026-05-07 22:10 35.99309 128.15445 38998 ft 335 kts 309°
2026-05-07 22:10 36.03019 128.11970 38997 ft 334 kts 309°
2026-05-07 22:11 36.06725 128.08495 39001 ft 334 kts 309°
2026-05-07 22:11 36.10437 128.05016 39000 ft 335 kts 309°
2026-05-07 22:12 36.14152 128.01534 39011 ft 336 kts 308°
2026-05-07 22:12 36.17896 127.98061 39002 ft 337 kts 309°
2026-05-07 22:13 36.21648 127.94576 39014 ft 337 kts 309°
2026-05-07 22:13 36.25389 127.91047 38998 ft 339 kts 309°
2026-05-07 22:14 36.29142 127.87497 39005 ft 339 kts 309°
2026-05-07 22:14 36.32891 127.83945 39004 ft 339 kts 309°
2026-05-07 22:15 36.36641 127.80387 39007 ft 339 kts 309°
2026-05-07 22:15 36.40393 127.76825 39008 ft 340 kts 309°
2026-05-07 22:16 36.44136 127.73255 39027 ft 340 kts 309°
2026-05-07 22:16 36.47875 127.69654 39008 ft 340 kts 309°
2026-05-07 22:17 36.51591 127.66026 39004 ft 339 kts 309°
2026-05-07 22:17 36.55306 127.62399 39005 ft 340 kts 309°
2026-05-07 22:18 36.60859 127.56984 39005 ft 339 kts 309°
2026-05-07 22:19 36.64568 127.53370 39005 ft 338 kts 309°
2026-05-07 22:19 36.68270 127.49760 39029 ft 338 kts 309°
2026-05-07 22:20 36.71363 127.46734 39060 ft 338 kts 309°
2026-05-07 22:20 36.75633 127.42517 39030 ft 337 kts 309°
2026-05-07 22:21 36.78682 127.39500 39028 ft 336 kts 309°
2026-05-07 22:21 36.82348 127.35870 39022 ft 336 kts 309°
2026-05-07 22:22 36.86009 127.32239 39015 ft 336 kts 309°
2026-05-07 22:22 36.89671 127.28606 39003 ft 336 kts 309°
2026-05-07 22:23 36.93331 127.24972 39002 ft 336 kts 309°
2026-05-07 22:23 36.96987 127.21324 39004 ft 337 kts 309°
2026-05-07 22:24 37.00635 127.17648 39005 ft 337 kts 309°
2026-05-07 22:24 37.04285 127.13967 39067 ft 337 kts 309°
2026-05-07 22:25 37.07916 127.10218 39027 ft 339 kts 308°
2026-05-07 22:25 37.11560 127.06448 39026 ft 340 kts 309°
2026-05-07 22:26 37.15206 127.02670 39027 ft 340 kts 309°
2026-05-07 22:26 37.18851 126.98891 39048 ft 340 kts 309°
2026-05-07 22:27 37.22468 126.95085 39016 ft 339 kts 309°
2026-05-07 22:27 37.26075 126.91275 39015 ft 339 kts 309°
2026-05-07 22:28 37.29682 126.87464 39020 ft 339 kts 309°
2026-05-07 22:28 37.33285 126.83653 39022 ft 339 kts 309°
2026-05-07 22:29 37.36880 126.79832 39036 ft 338 kts 309°
2026-05-07 22:29 37.40447 126.76001 39027 ft 337 kts 309°
2026-05-07 22:30 37.44006 126.72157 39026 ft 336 kts 309°
2026-05-07 22:30 37.47538 126.68328 39028 ft 335 kts 309°
2026-05-07 22:31 37.51044 126.64520 39028 ft 335 kts 309°
2026-05-07 22:31 37.54570 126.60690 39027 ft 335 kts 309°
2026-05-07 22:32 37.58095 126.56859 39026 ft 335 kts 309°
2026-05-07 22:32 37.61619 126.53025 39027 ft 335 kts 309°
2026-05-07 22:33 37.65142 126.49186 39030 ft 334 kts 309°
2026-05-07 22:33 37.68561 126.45417 39028 ft 336 kts 309°
2026-05-07 22:34 37.72125 126.41441 39026 ft 337 kts 309°
2026-05-07 22:34 37.75638 126.37527 39022 ft 337 kts 309°
2026-05-07 22:35 37.79156 126.33607 39026 ft 337 kts 309°
2026-05-07 22:35 37.82673 126.29686 39019 ft 337 kts 309°
2026-05-07 22:36 37.86191 126.25763 39026 ft 337 kts 309°
2026-05-07 22:36 37.89708 126.21830 39019 ft 338 kts 309°
2026-05-07 22:37 37.93225 126.17884 39021 ft 338 kts 309°
2026-05-07 22:37 37.96737 126.13926 39024 ft 338 kts 309°
2026-05-07 22:38 38.00215 126.09971 39032 ft 339 kts 308°
2026-05-07 22:38 38.03704 126.05900 39024 ft 342 kts 309°
2026-05-07 22:39 38.07198 126.01809 39024 ft 342 kts 309°
2026-05-07 22:39 38.10704 125.97721 39024 ft 342 kts 309°
2026-05-07 22:40 38.14205 125.93623 39030 ft 342 kts 308°
2026-05-07 22:40 38.17706 125.89523 39030 ft 342 kts 308°
2026-05-07 22:41 38.21205 125.85422 39030 ft 342 kts 309°